[[{"header":{"parameterUnit":"m.s-1","parameterCategory":1,"la1":30.2991,"la2":30.254,"lo1":-89.0895,"lo2":-89.0444,"dy":0.0017,"dx":0.0017,"nx":28,"ny":28,"refTime":"2024-09-27T21:00:00:Z","depth":0,"parameterNumber":2,"parameterNumberName":"U-component_of_WINDS"},"data":[0,0,0,0,0,0,0,0,0,0,0,0,0,0,0,0,0,0,0,0,0,0,0,0,0,0,0,0,0,0,0,0,0,0,0,0,0,0,0,0,0,0,0,0,0,0,0,0,0,0,0,0,0,0,0,0,0,0,4.2893,4.2894,0,4.2992,4.2993,4.2994,4.2997,4.2996,4.2994,4.2993,4.3099,4.3103,4.3107,0,0,0,0,0,0,0,0,0,0,0,0,0,4.271,4.2714,4.2893,4.2894,4.2895,4.2992,4.2993,4.2995,4.2997,4.2996,4.2994,4.2993,4.3098,4.3102,4.3107,0,0,0,0,0,0,0,0,0,0,0,0,0,4.2798,4.2715,4.2893,4.2908,4.291,4.2992,4.2993,4.2995,4.2997,4.2995,4.2994,4.2992,4.3096,4.3102,4.3108,4.3182,0,0,4.3126,4.3129,0,0,0,0,0,0,0,0,4.2793,4.2804,4.2904,4.2907,4.291,4.298,4.2968,4.3058,4.2998,4.2964,4.2993,4.2991,4.3061,4.307,4.3093,4.3187,4.3191,4.3127,4.313,4.3133,4.3134,0,0,0,0,0,0,0,4.2787,4.28,4.2932,4.2906,4.2909,4.2912,4.2922,4.2985,4.3022,4.2967,4.2968,4.2979,4.3062,4.3087,4.3095,4.3193,4.3126,4.3132,4.3135,4.3138,4.3355,4.3357,0,0,0,0,0,0,4.2777,4.2795,4.2929,4.2935,4.2845,4.2916,4.2928,4.2959,4.3021,4.3029,4.2981,4.2979,4.3078,4.3088,4.3099,4.3191,4.3133,4.3138,4.3142,4.3353,4.3355,4.3358,0,0,0,0,0,0,4.2773,4.2789,4.2925,4.2865,4.2883,4.2921,4.2957,4.2962,4.2987,4.3032,4.3039,4.2998,4.3077,4.3091,4.3161,4.3194,4.3141,4.3146,4.335,4.3353,4.3356,4.3374,0,0,0,0,0,0,4.2768,4.2787,4.2814,4.2866,4.2886,4.2984,4.2959,4.2966,4.2997,4.2995,4.305,4.3058,4.3076,4.3152,4.3167,4.3202,4.3151,4.3347,4.3352,4.3355,4.337,4.3377,4.3383,0,0,0,0,0,4.2761,4.2816,4.2816,4.2832,4.292,4.2986,4.2997,4.3017,4.2999,4.3028,4.3057,4.3056,4.3188,4.316,4.3176,4.3213,4.3345,4.335,4.3355,4.3367,4.3376,4.3383,0,0,0,0,0,0,4.2768,4.2823,4.2823,4.2896,4.2936,4.2986,4.3022,4.3025,4.3072,4.3069,4.3092,4.3104,4.3175,4.3201,4.3168,4.3289,4.3265,4.3274,4.3269,4.3277,4.3283,4.3275,4.3156,0,0,0,0,0,4.2778,4.2825,4.2871,4.2931,4.2951,4.2983,4.3012,4.3024,4.3067,4.3084,4.3118,4.3162,4.3213,4.3247,4.3297,4.3375,4.3387,4.3408,4.3414,4.3419,4.3426,4.3471,4.3481,4.3374,4.3374,4.3374,0,0,4.2799,4.2834,4.2863,4.2933,4.2965,4.3015,4.2997,4.3051,4.3088,4.3093,4.3161,4.3188,4.3238,4.3313,4.3348,4.3337,4.3459,4.3426,4.3429,4.3434,4.3477,4.3487,4.3496,4.3377,4.3377,4.3376,0,0,4.2862,4.2894,4.2947,4.298,4.303,4.3051,4.3064,4.3115,4.3132,4.3201,4.3206,4.3253,4.334,4.3376,4.3406,4.3486,4.3487,4.3502,4.3534,4.3578,4.3586,4.3594,4.3623,4.3633,4.3508,4.3508,4.3509,0,4.2882,4.2956,4.2975,4.3028,4.306,4.3066,4.3121,4.3153,4.3217,4.3239,4.3226,4.3338,4.3372,4.3456,4.3475,4.3499,4.3516,4.3495,4.3583,4.3591,4.3598,4.3627,4.3637,4.351,4.351,4.351,4.3509,0,4.2979,4.303,4.3068,4.3128,4.3164,4.3219,4.3247,4.3282,4.3291,4.3315,4.3386,4.3428,4.3486,4.3508,4.3517,4.3594,4.3586,4.3578,4.3554,4.361,4.3637,4.3647,4.3512,4.3511,4.3511,4.3511,0,0,4.3048,4.3119,4.3132,4.3161,4.3216,4.3257,4.3313,4.337,4.34,4.3444,4.3492,4.3568,4.3561,4.3595,4.3609,4.3647,4.3709,4.3635,4.3637,4.3647,4.3797,4.3803,4.3815,4.3711,4.3713,4.3714,4.3793,0,4.3118,4.3215,4.3234,4.332,4.3368,4.3376,4.3425,4.3466,4.349,4.3536,4.3564,4.3617,4.3604,4.3624,4.3662,4.3693,4.3739,4.3688,4.3757,4.3759,4.3744,4.3829,4.3834,4.3907,4.3804,4.3806,4.3807,0,4.3211,4.3257,4.3347,4.3398,4.3419,4.3462,4.3517,4.356,4.3608,4.3623,4.3662,4.3672,4.3733,4.3707,4.3792,4.3756,4.3786,4.3806,4.3809,4.3816,4.3786,4.3838,4.393,4.3941,4.3824,4.3822,4.3821,0,4.3253,4.3338,4.3403,4.3427,4.3487,4.3518,4.3545,4.359,4.3624,4.3672,4.3694,4.375,4.378,4.3824,4.385,4.3828,4.3933,4.3909,4.3948,4.3948,4.3969,4.3968,4.4067,4.3989,4.3989,4.3989,4.3988,0,4.3329,4.3383,4.3422,4.3462,4.3525,4.3548,4.361,4.3637,4.3678,4.3724,4.3735,4.3779,4.3811,4.386,4.3881,4.3949,4.3963,4.3978,4.3983,4.3976,4.3975,4.3996,4.3992,4.3992,4.3991,4.399,4.399,0,4.3385,4.3413,4.3485,4.3537,4.3551,4.3595,4.364,4.3681,4.3706,4.3765,4.378,4.382,4.3879,4.3909,4.3983,4.3997,4.4073,4.4075,4.4057,4.4059,4.4096,4.4093,4.4213,4.4231,4.4141,4.4142,4.4142,0,4.3431,4.3474,4.353,4.3562,4.3589,4.364,4.3674,4.37,4.3735,4.3794,4.3827,4.3886,4.3934,4.4028,4.4065,4.4122,4.4126,4.4164,4.4134,4.4127,4.4127,4.4124,4.4128,4.4169,4.417,4.4171,4.4171,0,4.351,4.3523,4.357,4.3624,4.3664,4.3708,4.3751,4.3777,4.381,4.385,4.3909,4.3947,4.4022,4.4081,4.4141,4.4171,4.4178,4.418,4.4193,4.4187,4.4174,4.4182,4.4071,4.4177,4.4177,4.4176,4.4176,4.4176,4.3564,4.3602,4.3648,4.3702,4.3737,4.3778,4.3818,4.3848,4.3898,4.396,4.3973,4.4036,4.4085,4.4166,4.4198,4.4249,4.4242,4.4259,4.4264,4.4267,4.4269,4.4166,4.4261,4.426,4.426,4.426,4.426,0,4.3643,4.3674,4.3723,4.3783,4.3826,4.3827,4.3876,4.3912,4.3967,4.4011,4.4059,4.4128,4.4186,4.4228,4.4287,4.432,4.4325,4.4335,4.4333,4.434,4.4273,4.4256,4.4331,4.4331,4.4331,4.4331,4.4331,4.4331,4.369,4.3755,4.3773,4.3857,4.3888,4.3949,4.3976,4.4015,4.405,4.4127,4.4174,4.4201,4.4245,4.4308,4.4362,4.4373,4.4395,4.4405,4.4416,4.4352,4.4345,4.4337,4.4322,4.4409,4.4409,4.4479,4.448,4.448]},{"header":{"parameterUnit":"m.s-1","parameterCategory":1,"la1":30.2991,"la2":30.254,"lo1":-89.0895,"lo2":-89.0444,"dy":0.0017,"dx":0.0017,"nx":28,"ny":28,"refTime":"2024-09-27T21:00:00:Z","depth":0,"parameterNumber":3,"parameterNumberName":"V-component_of_WINDS"},"data":[0,0,0,0,0,0,0,0,0,0,0,0,0,0,0,0,0,0,0,0,0,0,0,0,0,0,0,0,0,0,0,0,0,0,0,0,0,0,0,0,0,0,0,0,0,0,0,0,0,0,0,0,0,0,0,0,0,0,2.2769,2.2769,0,2.2828,2.2829,2.283,2.2857,2.2857,2.2857,2.2856,2.2915,2.2916,2.2918,0,0,0,0,0,0,0,0,0,0,0,0,0,2.2674,2.2676,2.2769,2.2769,2.277,2.2828,2.2829,2.283,2.2857,2.2857,2.2856,2.2856,2.2914,2.2916,2.2918,0,0,0,0,0,0,0,0,0,0,0,0,0,2.2723,2.2676,2.2768,2.2791,2.2793,2.2828,2.2829,2.283,2.2857,2.2857,2.2856,2.2856,2.2913,2.2916,2.2918,2.2935,0,0,2.2925,2.2926,0,0,0,0,0,0,0,0,2.272,2.2726,2.2787,2.2789,2.2792,2.2835,2.2817,2.2865,2.2857,2.2832,2.2856,2.2856,2.2888,2.2892,2.2904,2.2937,2.294,2.2926,2.2927,2.2928,2.2929,0,0,0,0,0,0,0,2.2716,2.2724,2.2792,2.2787,2.2791,2.2796,2.2803,2.2826,2.286,2.2835,2.2837,2.2843,2.2889,2.2901,2.2905,2.2941,2.2926,2.2928,2.2929,2.293,2.299,2.299,0,0,0,0,0,0,2.271,2.2721,2.279,2.2794,2.2755,2.2798,2.2806,2.2821,2.286,2.2866,2.2844,2.2845,2.2897,2.2902,2.2907,2.2929,2.2928,2.293,2.2932,2.299,2.299,2.299,0,0,0,0,0,0,2.2708,2.2716,2.2788,2.2758,2.2768,2.28,2.2817,2.2822,2.2835,2.2867,2.2872,2.285,2.2897,2.2904,2.2928,2.2932,2.2931,2.2934,2.299,2.299,2.299,2.2973,0,0,0,0,0,0,2.2705,2.2715,2.2723,2.2758,2.2769,2.2808,2.2817,2.2824,2.2839,2.2841,2.2874,2.2879,2.2898,2.2924,2.293,2.2935,2.2935,2.2989,2.299,2.299,2.2973,2.2972,2.2972,0,0,0,0,0,2.2702,2.2715,2.2723,2.2731,2.2779,2.2808,2.2815,2.2837,2.2839,2.2846,2.2867,2.2878,2.293,2.2926,2.2933,2.2939,2.2989,2.299,2.299,2.2973,2.2972,2.2972,0,0,0,0,0,0,2.2678,2.272,2.2729,2.2754,2.2778,2.2813,2.2823,2.2835,2.2857,2.2858,2.2883,2.289,2.2912,2.2928,2.2923,2.2956,2.2961,2.2962,2.2945,2.2945,2.2944,2.294,2.2937,0,0,0,0,0,2.2676,2.2697,2.2732,2.2751,2.2762,2.279,2.2804,2.2819,2.2843,2.2853,2.2875,2.2898,2.2919,2.2933,2.2954,2.2975,2.2982,2.2982,2.2982,2.2981,2.2982,2.2994,2.2994,2.2991,2.2991,2.2991,0,0,2.2672,2.2697,2.2709,2.2747,2.2767,2.2787,2.2798,2.282,2.2835,2.2856,2.288,2.2897,2.2924,2.2946,2.2957,2.296,2.2984,2.2981,2.298,2.2982,2.2994,2.2994,2.2995,2.2992,2.2991,2.2991,0,0,2.2674,2.2696,2.2714,2.2733,2.2763,2.2782,2.2786,2.2819,2.2832,2.2856,2.2873,2.289,2.2927,2.2945,2.2959,2.2968,2.2979,2.2974,2.297,2.2981,2.2981,2.2982,2.2985,2.2985,2.2975,2.2975,2.2975,0,2.2665,2.2697,2.2721,2.2742,2.2757,2.2778,2.2796,2.2813,2.2848,2.2858,2.2861,2.2907,2.2927,2.2953,2.2955,2.2966,2.2971,2.297,2.298,2.298,2.2981,2.2984,2.2985,2.2974,2.2974,2.2974,2.2974,0,2.2684,2.2706,2.2717,2.2751,2.2768,2.2787,2.2812,2.2826,2.2839,2.2857,2.2881,2.2905,2.2932,2.2939,2.2952,2.2967,2.2968,2.2975,2.298,2.298,2.2983,2.2984,2.2973,2.2973,2.2973,2.2974,0,0,2.2674,2.2721,2.2725,2.274,2.2775,2.2792,2.2811,2.2838,2.2849,2.2872,2.2888,2.2918,2.2924,2.294,2.2955,2.2965,2.2969,2.297,2.2971,2.2969,2.2988,2.2983,2.2984,2.2977,2.2977,2.2977,2.2985,0,2.2681,2.2718,2.274,2.2767,2.2787,2.2807,2.2824,2.2846,2.2863,2.2881,2.2899,2.292,2.2927,2.2937,2.2947,2.2967,2.2974,2.2966,2.2991,2.2992,2.2985,2.2985,2.298,2.2987,2.2987,2.2987,2.2987,0,2.2695,2.2719,2.2748,2.278,2.2789,2.2804,2.283,2.2848,2.2873,2.2884,2.2902,2.2917,2.2936,2.2939,2.2966,2.2961,2.2972,2.2983,2.2984,2.2987,2.299,2.2989,2.2989,2.299,2.2989,2.2989,2.2989,0,2.2685,2.2724,2.2747,2.2759,2.2797,2.2807,2.2823,2.2848,2.2862,2.2884,2.2894,2.2917,2.293,2.2948,2.2968,2.2968,2.2993,2.2997,2.3002,2.3002,2.3007,2.3007,2.301,2.3014,2.3014,2.3014,2.3014,0,2.2691,2.2708,2.2743,2.2757,2.2776,2.28,2.2818,2.2836,2.2858,2.2874,2.2892,2.2907,2.2933,2.2951,2.2967,2.2987,2.2992,2.3001,2.3005,2.3,2.2999,2.3008,2.3008,2.3014,2.3014,2.3014,2.3014,0,2.2683,2.2707,2.2733,2.2767,2.2775,2.2788,2.2816,2.283,2.2847,2.2868,2.2875,2.2902,2.2924,2.2946,2.2975,2.2985,2.3005,2.301,2.2997,2.2999,2.3003,2.3002,2.3012,2.3015,2.3017,2.3017,2.3017,0,2.2686,2.27,2.2735,2.2748,2.2764,2.2784,2.2799,2.2823,2.2837,2.2867,2.2876,2.29,2.292,2.2954,2.2976,2.2998,2.3004,2.3006,2.3008,2.3002,2.3004,2.3003,2.3005,2.3005,2.3005,2.3005,2.3005,0,2.2688,2.2699,2.272,2.2746,2.2764,2.2785,2.2806,2.2815,2.2843,2.2858,2.2881,2.2897,2.2927,2.295,2.2975,2.299,2.3002,2.3004,2.3007,2.3001,2.2993,2.2998,2.2995,2.3004,2.3004,2.3004,2.3004,2.3004,2.2685,2.2698,2.2725,2.2748,2.2767,2.2787,2.2801,2.2821,2.2841,2.2868,2.288,2.2903,2.2927,2.2962,2.2976,2.2994,2.2997,2.3001,2.3002,2.3002,2.3001,2.299,2.2999,2.2999,2.2999,2.2999,2.2999,0,2.2688,2.2706,2.2727,2.2757,2.2775,2.2786,2.281,2.2824,2.2844,2.2866,2.2886,2.2912,2.2934,2.2957,2.298,2.299,2.2996,2.2995,2.2995,2.2998,2.2997,2.2993,2.299,2.299,2.299,2.299,2.299,2.299,2.2692,2.2715,2.2729,2.276,2.2778,2.2802,2.2815,2.2832,2.285,2.2879,2.2897,2.2913,2.2935,2.2959,2.298,2.2986,2.2993,2.2991,2.2999,2.2997,2.2998,2.2999,2.2995,2.2993,2.2993,2.2999,2.2999,2.2999]}]]